User: anonymous
Location: Unspecified
(0.0000°N, 0.0000°E)
Time: 07:06:13
(UTC+02:00)
Language:

Cosmos 1703 - Orbit

View from above orbital plane
View from above orbital plane
View from above satellite
View from above satellite

Ground track
Ground track

The orbit data is extracted from the following two-line orbital elements,

1 16262U 85108A   14238.15378049  .00003176  00000-0  21632-3 0  5095
2 16262 082.4944 174.6714 0011005 219.8494 140.1926 15.05920294564177
Epoch (UTC): 26 August 2014 03:41:26
Eccentricity: 0.0011005
inclination: 82.4944°
perigee height: 541 km
apogee height: 556 km
right ascension of ascending node: 174.6714°
argument of perigee: 219.8494°
revolutions per day: 15.05920294
mean anomaly at epoch: 140.1926°
orbit number at epoch: 56417

The dashed part of the orbit path shows where the satellite is in the earth's shadow,  

DLR